Location: Lafig�re
(44.4503°N, 4.0357°E)
Time: 16:30:17
(UTC+00:00)

SPOT 3 Rocket - Pass Details

Date: 24 September 2020
Orbit: 779 x 794 km, 98.8° (Epoch: 20 October)

Event Time Altitude Azimuth Distance (km) Brightness Sun altitude
Exits shadow 20:20:50 70° 273° (W) 829 3.7 -28.8°
Drops below altitude 10° 20:25:50 10° 342° (NNW) 2,344 6.6 -29.6°
Sets 20:28:10 0° 344° (NNW) 3,278 7.4 -29.9°
